Weather Roundup
Issued by NWS

Home | Current Version | Previous Version | Text Only | Print | Product List | Glossary On
Versions: 1 2 3 4 5 6 7 8 9 10 11 12 13 14 15 16 17 18 19 20 21 22 23 24 25 26 27 28 29 30 31 32 33 34 35 36 37 38 39 40 41 42 43 44 45 46 47 48 49 50
000
NZUS93 KARX 270710
HRRWXR

CURRENT HOURLY OBSERVATIONS ACROSS
MUCH OF THE UPPER MISSISSIPPI VALLEY
NATIONAL WEATHER SERVICE LA CROSSE WI
200 AM CDT FRI MAR 27 2015


...SOUTHEAST MINNESOTA...


CITY           SKY/WX    TMP DP  RH WIND       PRES   REMARKS
ROCHESTER      CLEAR     20   8  60 N7        30.17S WCI  11
ROCHESTER/MAYO FAIR      24  10  56 N3        30.19R
WINONA         CLEAR     28  14  54 E6        30.22R WCI  22
AUSTIN         CLEAR     19  12  73 NW5       30.18R WCI  13
ALBERT LEA     CLEAR     21  18  86 N5        30.19R WCI  15
DODGE CENTER   PTCLDY    19   9  63 N3        30.18R
PRESTON        CLEAR     20   9  62 N6        30.16S WCI  13
OWATONNA       CLEAR     14  10  85 CALM      30.20R
FARIBAULT      CLEAR     14  10  85 CALM      30.21S
$$

...ELSEWHERE IN MINNESOTA...


CITY           SKY/WX    TMP DP  RH WIND       PRES   REMARKS
MINNEAPOLIS    CLEAR     24   4  42 N9        30.23S WCI  14
INTNL FALLS    CLEAR      8   4  83 CALM      30.26R
DULUTH         CLEAR     15   1  53 N6        30.21S WCI   6
RED WING       CLEAR     23   7  50 CALM      30.21S
REDWOOD FALLS  CLEAR     23  13  65 N9        30.26R WCI  13
MANKATO        CLEAR     21  10  63 N7        30.22R WCI  13
WORTHINGTON    CLEAR     18  10  73 NW9       30.24R WCI   6
FAIRMONT       CLEAR     23  16  74 NW9       30.21R WCI  13
$$

...SOUTHWEST WISCONSIN...


CITY           SKY/WX    TMP DP  RH WIND       PRES   REMARKS
LA CROSSE      CLEAR     25  10  53 NE9       30.20R WCI  15
PRAIRIE DU CHI CLOUDY    31  14  49 N6        30.16S WCI  25
BOSCOBEL       CLEAR     27  10  49 NE9G16    30.18R WCI  18
LONE ROCK      CLEAR     25   8  48 N13       30.17R WCI  14
PLATTEVILLE    CLOUDY    28  18  64 N12       30.12S WCI  18
FORT MC COY    CLEAR     19   8  60 NE5       30.21R WCI  12
CAMP DOUGLAS   CLEAR     18   9  66 N5        30.18R WCI  11
VIROQUA        FAIR      21  10  62 NE12      30.15R WCI  10
WIS DELLS      CLEAR     21   5  50 N12G17    30.15S WCI   9
$$

...ELSEWHERE IN WISCONSIN...


CITY           SKY/WX    TMP DP  RH WIND       PRES   REMARKS
MILWAUKEE      LGT SNOW  26  20  77 N9        30.10S WCI  17
MADISON        CLEAR     22   7  52 N8        30.13S WCI  12
GREEN BAY      CLEAR     20   8  60 N7        30.16R WCI  11
EAU CLAIRE     CLEAR     18   8  65 CALM      30.20S
BLACK RVR FLS  FAIR      21   6  51 NE7       30.20R WCI  13
MEDFORD        MOCLDY    11   6  81 W3        30.14S
WAUSAU         MOCLDY    16   7  67 NW6       30.13S WCI   7
WIS RAPIDS     CLEAR     17   4  56 N5        30.18R WCI  10
MARSHFIELD     CLEAR     14   6  70 NW5       30.15S WCI   6
RICE LAKE      FAIR      19   9  64 N3        30.21S
$$

...NORTHEAST IOWA...


CITY           SKY/WX    TMP DP  RH WIND       PRES   REMARKS
DECORAH        PTCLDY    25  14  63 N8        30.14S WCI  16
MASON CITY     CLEAR     24  18  77 N9        30.19S WCI  14
CHARLES CITY   CLEAR     27  21  80 N13       30.17S WCI  16
OELWEIN        CLOUDY    28  21  74 N9G16     30.15S WCI  20
$$

...ELSEWHERE IN IOWA...


CITY           SKY/WX    TMP DP  RH WIND       PRES   REMARKS
DES MOINES     CLOUDY    32  18  56 N8        30.19S WCI  25
IOWA CITY      CLOUDY    31  21  66 NW8       30.16S WCI  23
FORT DODGE     CLEAR     27  16  63 CALM      30.21S
$$

...NORTHERN ILLINOIS...


CITY           SKY/WX    TMP DP  RH WIND       PRES   REMARKS
CHICAGO-OHARE  MOCLDY    31  18  58 N9        30.06F WCI  23
CHICAGO-MIDWAY LGT SNOW  32  22  66 N13       30.07S FOG     WCI  22
MOLINE         CLOUDY    31  21  66 NW9       30.11F WCI  23
ROCKFORD       PTCLDY    29  14  53 N10       30.12S WCI  20
PEORIA         PTCLDY    31  21  66 NW6       30.09F WCI  25
$$

NOTE: "FAIR" INDICATES FEW OR NO CLOUDS BELOW 12,000 FEET WITH NO
SIGNIFICANT WEATHER AND/OR OBSTRUCTIONS TO VISIBILITY. WIND
SPEEDS ARE IN MILES-PER-HOUR.



USA.gov is the U.S. government's official web portal to all federal, state and local government web resources and services.